Weather History for Flint, MI

Change the Weather History Date:

Thursday, August 21, 2014

  Actual Average Record
Temperature  
Mean Temperature 72 °F 68 °F  
Max Temperature 82 °F 79 °F 97 °F (1955)
Min Temperature 61 °F 58 °F 41 °F (1950)
Degree Days  
Heating Degree Days 0 1  
Month to date heating degree days 7 20  
Since 1 June heating degree days 46 101  
Since 1 July heating degree days 24 35  
Cooling Degree Days 7 4  
Month to date cooling degree days 114 109  
Year to date cooling degree days 443 440  
Since 1 June cooling degree days 395 408  
Growing Degree Days 22 (Base 50)    
Moisture  
Dew Point 63 °F    
Average Humidity 75    
Maximum Humidity 90    
Minimum Humidity 60    
Precipitation  
Precipitation 0.00 in 0.10 in 4.00 in (1975)
Month to date precipitation 3.73 2.16  
Year to date precipitation 26.90 19.54  
Snow  
Snow 0.00 in 0.00 in 0.00 in ()
Month to date snowfall 0.0 0.0  
Since 1 June snowfall 0.0 0.0  
Since 1 July snowfall 0.0 0.0  
Snow Depth 0.00 in    
Sea Level Pressure  
Sea Level Pressure 29.97 in    
Wind  
Wind Speed 5 mph (NE)    
Max Wind Speed 13 mph    
Max Gust Speed 15 mph    
Visibility 9 miles    
Events      
T = Trace of Precipitation, MM = Missing Value Source: NWS Daily Summary

Daily Weather History Graph

Daily Weather History Graph

Search for Another Location

Airport:

Trip Planner

Search our weather history database for the weather conditions in past years. The results will help you decide how hot, cold, wet, or windy it might be!

Date:

Astronomy

Aug. 21, 2014 Rise Set
Actual Time 6:47 AM EDT 8:27 PM EDT
Civil Twilight 6:17 AM EDT 8:57 PM EDT
Nautical Twilight 5:40 AM EDT 9:34 PM EDT
Astronomical Twilight 5:01 AM EDT 10:13 PM EDT
Moon 3:14 AM EDT (8/21) 5:58 PM EDT (8/21)
Length of Visible Light 14h 40m
Length of Day
13h 40m
Waning Crescent, 13% of the Moon is Illuminated
Aug 21
Waning Crescent
Aug 25
New
Sep 2
First Quarter
Sep 8
Full
Sep 15
Last Quarter

Hourly Weather History & Observations

Time (EDT) Temp. Heat Index Dew Point Humidity Pressure Visibility Wind Dir Wind Speed Gust Speed Precip Events Conditions
12:53 AM 68.0 °F - 63.0 °F 84% 29.96 in 10.0 mi West 3.5 mph - N/A   Scattered Clouds
1:53 AM 66.9 °F - 62.1 °F 84% 29.96 in 10.0 mi West 5.8 mph - N/A   Clear
2:53 AM 66.0 °F - 61.0 °F 84% 29.95 in 10.0 mi Calm Calm - N/A   Clear
3:53 AM 64.0 °F - 60.1 °F 87% 29.96 in 10.0 mi West 4.6 mph - N/A   Clear
4:53 AM 64.0 °F - 60.1 °F 87% 29.95 in 9.0 mi West 3.5 mph - N/A   Clear
5:24 AM 61.0 °F - 57.9 °F 90% 29.96 in 1.8 mi Calm Calm - N/A   Clear
5:35 AM 63.0 °F - 59.0 °F 87% 29.96 in 3.0 mi Calm Calm - N/A   Clear
5:53 AM 64.0 °F - 59.0 °F 84% 29.96 in 8.0 mi Calm Calm - N/A   Clear
6:53 AM 63.0 °F - 59.0 °F 87% 29.96 in 10.0 mi NNE 3.5 mph - N/A   Clear
7:53 AM 66.0 °F - 61.0 °F 84% 29.99 in 10.0 mi NE 4.6 mph - N/A   Clear
8:53 AM 69.1 °F - 62.1 °F 78% 29.98 in 10.0 mi ENE 6.9 mph - N/A   Partly Cloudy
9:53 AM 72.0 °F - 62.1 °F 71% 29.99 in 10.0 mi Variable 3.5 mph - N/A   Scattered Clouds
10:53 AM 75.9 °F - 63.0 °F 64% 30.00 in 10.0 mi Variable 5.8 mph - N/A   Scattered Clouds
11:14 AM 75.9 °F - 63.0 °F 64% 30.02 in 10.0 mi Variable 3.5 mph - N/A   Mostly Cloudy
11:25 AM 75.0 °F - 62.1 °F 64% 30.01 in 10.0 mi Calm Calm - N/A   Mostly Cloudy
11:53 AM 75.9 °F - 63.0 °F 64% 30.00 in 10.0 mi Variable 5.8 mph - N/A   Mostly Cloudy
12:53 PM 77.0 °F - 63.0 °F 62% 30.00 in 10.0 mi ENE 3.5 mph - N/A   Overcast
1:53 PM 79.0 °F - 64.9 °F 62% 29.98 in 10.0 mi SSE 4.6 mph - N/A   Mostly Cloudy
2:53 PM 79.0 °F - 64.9 °F 62% 29.97 in 10.0 mi South 4.6 mph - N/A   Scattered Clouds
3:53 PM 79.0 °F - 66.0 °F 64% 29.97 in 10.0 mi Variable 3.5 mph - N/A   Mostly Cloudy
4:53 PM 81.0 °F 83.0 °F 66.0 °F 60% 29.96 in 10.0 mi SW 3.5 mph - N/A   Partly Cloudy
5:53 PM 80.1 °F 82.3 °F 66.9 °F 64% 29.96 in 10.0 mi West 5.8 mph - N/A   Overcast
6:53 PM 80.1 °F 82.3 °F 66.9 °F 64% 29.96 in 10.0 mi North 4.6 mph - N/A   Scattered Clouds
7:53 PM 78.1 °F - 66.0 °F 66% 29.95 in 10.0 mi ENE 8.1 mph - N/A   Scattered Clouds
8:53 PM 75.9 °F - 66.0 °F 71% 29.96 in 10.0 mi NNE 6.9 mph - N/A   Mostly Cloudy
9:53 PM 75.0 °F - 66.0 °F 73% 29.97 in 10.0 mi East 8.1 mph - N/A   Mostly Cloudy
10:53 PM 75.0 °F - 66.0 °F 73% 29.97 in 10.0 mi East 5.8 mph - N/A   Overcast
11:53 PM 72.0 °F - 64.9 °F 78% 29.99 in 10.0 mi East 8.1 mph - N/A   Overcast